sat.trackr.live / text

‹ back to catalog

STARLINK-35199

NORAD 65858 · 2025-223E

PAYLOAD ACTIVE UNKNOWN

§ Identity

Operator
Country
US
Launch date
2025-10-03
Launch site
AFWTR
Launch vehicle
Mass (kg)
RCS (m²)

Purposes: comms

External: N2YO · Heavens-Above · Gunter

§ Orbital elements

Epoch: 2026-05-25T03:34:44.190912Z

Period
94.10 min
Inclination
53.1597°
Eccentricity
0.0001044
Mean motion
15.30210176 rev/d
Perigee alt
474.5 km
Apogee alt
475.9 km
Semi-major
6,853.3 km
B*
4.1720e-4
RAAN
298.9059°
Arg perigee
103.8619°
Mean anomaly
256.2497°
Rev number
3,591

§ Raw data

STARLINK-351991 65858U 25223E   26145.14912258  .00012021  00000+0  41720-3 0  99982 65858  53.1597 298.9059 0001044 103.8619 256.2497 15.30210176 35912

JSON: /api/v1/satellites/65858 · /tle

For live sub-satellite position, see the globe view (requires WebGL).

§ Visibility from observer

Set your observer location to see the next 7 days of passes ≥ 10°. The values pass through the URL so the page stays shareable.

No JS? Fill the form by hand. The geolocation button needs JavaScript.